Terminal Aerodrome Forecast
Issued by NWS Green Bay, WI

Home | Current Version | Previous Version | Graphics & Text | Print | Product List | Glossary On
Versions: 1 2 3 4 5 6 7 8 9 10 11 12 13 14 15 16 17 18 19 20 21 22 23 24 25 26 27 28
000
FTUS43 KGRB 260500
TAFGRB
TAF
KGRB 260520Z 2606/2706 03013G20KT P6SM SCT110
     FM260800 03009KT P6SM SKC
     FM261400 36008G13KT P6SM SKC
     FM262300 29004KT P6SM SKC=

USA.gov is the U.S. government's official web portal to all federal, state and local government web resources and services.